Regional Weather Roundup
Issued by NWS

Home | Current Version | Previous Version | Graphics & Text | Print | Product List | Glossary On
Versions: 1 2 3 4 5 6 7 8 9 10 11 12 13 14 15 16 17 18 19 20 21 22 23 24 25 26 27 28 29 30 31 32 33 34 35 36 37 38 39 40 41 42 43 44 45 46 47 48 49 50
000
ASUS45 KPSR 280510
RWRAZ

ARIZONA HOURLY REGIONAL WEATHER ROUNDUP
NATIONAL WEATHER SERVICE PHOENIX AZ
1000 PM MST MON JUL 27 2015

NOTE: FAIR INDICATES FEW OR NO CLOUDS BELOW 12,000 FEET WITH NO
SIGNIFICANT WEATHER AND/OR OBSTRUCTIONS TO VISIBILITY.

AZZ001>003-036-280600-
NORTHWEST ARIZONA

CITY           SKY/WX    TMP DP  RH WIND       PRES   REMARKS
BULLHEAD CITY  CLEAR     95  32  11 S3        29.75R
KINGMAN        CLEAR     77  12   8 S14       29.97R
$$

AZZ004>008-015-016-018-280600-
NORTH CENTRAL ARIZONA

CITY           SKY/WX    TMP DP  RH WIND       PRES   REMARKS
GRAND CANYON   CLEAR     53  20  27 CALM      30.22R
WILLIAMS       CLEAR     66  34  30 SW6       30.30R
PRESCOTT       CLEAR     72  44  36 S7        30.11R
FLAGSTAFF      CLEAR     61  42  49 SW6       30.27R
PAYSON         CLEAR     77  48  36 W6        30.14R
PAGE           CLEAR     87  21   9 W7        29.97R
$$

AZZ009>014-017-280600-
NORTHEAST ARIZONA

CITY           SKY/WX    TMP DP  RH WIND       PRES   REMARKS
WINSLOW        CLEAR     77  45  32 SW12      30.08R
SAINT JOHNS    PTCLDY    75  43  31 SW12      30.13R
WINDOW ROCK    CLEAR     69  35  28 VRB5      30.21R
SHOW LOW       MOCLDY    70  41  35 S6        30.22S
$$

AZZ023-280600-
GREATER PHOENIX AREA

CITY           SKY/WX    TMP DP  RH WIND       PRES   REMARKS
PHOENIX        PTCLDY   101  52  19 W12       29.76R
LUKE AFB       CLEAR     95  55  26 SW5       29.76R
DEER VALLEY    CLEAR     95  53  24 W6        29.80R
SCOTTSDALE     CLEAR     96  52  22 CALM      29.81R
MESA-GATEWAY   CLEAR     95  54  24 N3        29.82R
$$

AZZ027-028-280600-
SOUTHWEST MARICOPA COUNTY AND PINAL COUNTY

CITY           SKY/WX    TMP DP  RH WIND       PRES   REMARKS
CASA GRANDE    CLEAR     97  55  24 W7        29.80R
$$

AZZ503-504-507>509-280600-
SOUTHEAST ARIZONA

CITY           SKY/WX    TMP DP  RH WIND       PRES   REMARKS
TUCSON         MOCLDY    89  60  37 S15       29.93R
DAVIS-MONTHAN  MOCLDY    87  60  39 S12       29.92R
NOGALES        CLOUDY    74  61  63 S3        30.06R
SIERRA VISTA   MOCLDY    77  57  50 VRB2      30.11R
DOUGLAS          N/A    N/A N/A N/A MISG      30.05S
SAFFORD        PTCLDY    89  47  23 NW12      29.91R
$$

AZZ020-021-025-026-031-280600-
SOUTHWEST ARIZONA

CITY           SKY/WX    TMP DP  RH WIND       PRES   REMARKS
YUMA           PTCLDY    92  64  39 S7        29.74R
$$

CAZ031-033-041-043-047-048-061-280600-
SOUTHERN CALIFORNIA

CITY           SKY/WX    TMP DP  RH WIND       PRES   REMARKS
DOWNTOWN L.A.  CLEAR     69  62  78 W3        29.90R
L.A. AIRPORT   MOCLDY    67  64  90 W9        29.91R
SAN DIEGO      PTCLDY    69  60  73 NW3       29.93R
BURBANK        CLEAR     72  59  63 S3        29.90R
ONTARIO        CLEAR     71  57  61 W9        29.91R
RIVERSIDE      CLEAR     72  58  61 W5        29.91R
PALM SPRINGS   CLEAR     91  53  27 NW15G22   29.76R
EL CENTRO NAS  CLEAR     89  44  20 W9        29.74R
IMPERIAL       CLEAR     85  48  27 W10       29.71R
BLYTHE         CLEAR     96  33  11 SW10      29.73R
NEEDLES        CLEAR     96  18   6 SW9       29.76R
$$

NVZ020-UTZ003-280600-
SOUTHERN NEVADA-UTAH

CITY           SKY/WX    TMP DP  RH WIND       PRES   REMARKS
LAS VEGAS      PTCLDY    93  25   8 SW6       29.78R
SALT LAKE CITY CLEAR     66  41  40 N14       30.13R
$$

NMZ009-TXZ055-280600-
NEW MEXICO-WEST TEXAS

CITY           SKY/WX    TMP DP  RH WIND       PRES   REMARKS
ALBUQUERQUE    CLOUDY    81  50  33 S5        30.08R
EL PASO        CLOUDY    87  53  31 NW5       29.98F
$$


........................KEY........................
SKY/WX - SKY CONDITION/WEATHER
TMP    - TEMPERATURE IN FAHRENHEIT
DP     - DEW POINT IN FAHRENHEIT
RH     - RELATIVE HUMIDITY IN PERCENT
WIND   - DIRECTION AND SPEED IN MILES PER HOUR (MPH)
VRB    - VARIABLE WIND DIRECTION
PRES   - MEAN SEA LEVEL PRESSURE IN INCHES OF MERCURY
         F - FALLING PRESSURE   R - RISING PRESSURE
         S - STEADY PRESSURE
VSB    - VISIBILITY IN MILES
HX     - HEAT INDEX IN FAHRENHEIT
WCI    - WIND CHILL INDEX IN FAHRENHEIT
TC     - TEMPERATURE IN CELSIUS WHICH IS ALSO KNOWN AS
         TEMPERATURE IN CENTIGRADE
AFB    - AIR FORCE BASE
         LUKE AFB IS LUKE AIR FORCE BASE
         DAVIS-MONTHAN IS DAVIS-MONTHAN AIR FORCE BASE
NAS    - NAVAL AIR STATION
         EL CENTRO NAS IS EL CENTRO NAVAL AIR STATION
N/A    - NOT AVAILABLE



USA.gov is the U.S. government's official web portal to all federal, state and local government web resources and services.